TimeMST,TemperatureF,Dew PointF,Humidity,Sea Level PressureIn,VisibilityMPH,Wind Direction,Wind SpeedMPH,Gust SpeedMPH,PrecipitationIn,Events,Conditions,WindDirDegrees,DateUTC
12:15 AM,71.6,44.6,38,30.08,10.0,ENE,11.5,-,N/A,,Clear,60,2013-09-16 07:15:00
12:35 AM,71.6,44.6,38,30.08,10.0,ENE,12.7,-,N/A,,Clear,60,2013-09-16 07:35:00
12:55 AM,71.6,44.6,38,30.08,10.0,NE,11.5,-,N/A,,Clear,50,2013-09-16 07:55:00
1:15 AM,71.6,44.6,38,30.08,10.0,NE,11.5,-,N/A,,Clear,50,2013-09-16 08:15:00
1:35 AM,71.6,46.4,41,30.08,10.0,NE,11.5,-,N/A,,Clear,50,2013-09-16 08:35:00
1:55 AM,71.6,46.4,41,30.08,10.0,NE,11.5,-,N/A,,Clear,50,2013-09-16 08:55:00
2:15 AM,71.6,46.4,41,30.08,10.0,NE,12.7,-,N/A,,Clear,50,2013-09-16 09:15:00
2:35 AM,71.6,46.4,41,30.08,10.0,NE,11.5,-,N/A,,Clear,50,2013-09-16 09:35:00
2:55 AM,71.6,46.4,41,30.07,10.0,NE,12.7,-,N/A,,Clear,50,2013-09-16 09:55:00
3:15 AM,69.8,46.4,43,30.07,10.0,NE,11.5,-,N/A,,Clear,50,2013-09-16 10:15:00
3:35 AM,69.8,46.4,43,30.08,10.0,NE,12.7,-,N/A,,Clear,50,2013-09-16 10:35:00
3:55 AM,69.8,46.4,43,30.09,10.0,ENE,11.5,-,N/A,,Clear,60,2013-09-16 10:55:00
4:15 AM,68.0,46.4,46,30.09,10.0,ENE,6.9,-,N/A,,Clear,60,2013-09-16 11:15:00
4:35 AM,68.0,46.4,46,30.09,10.0,NE,10.4,-,N/A,,Clear,50,2013-09-16 11:35:00
4:55 AM,68.0,46.4,46,30.10,10.0,ENE,9.2,-,N/A,,Clear,60,2013-09-16 11:55:00
5:15 AM,69.8,46.4,43,30.10,10.0,NE,9.2,-,N/A,,Clear,40,2013-09-16 12:15:00
5:35 AM,68.0,46.4,46,30.10,10.0,NE,15.0,-,N/A,,Clear,40,2013-09-16 12:35:00
5:55 AM,66.2,46.4,49,30.10,10.0,NE,12.7,-,N/A,,Clear,50,2013-09-16 12:55:00
6:15 AM,68.0,46.4,46,30.11,10.0,NE,13.8,-,N/A,,Clear,50,2013-09-16 13:15:00
6:35 AM,68.0,48.2,49,30.11,10.0,NE,12.7,18.4,N/A,,Clear,50,2013-09-16 13:35:00
6:55 AM,69.8,50.0,49,30.11,10.0,NE,11.5,-,N/A,,Clear,50,2013-09-16 13:55:00
7:15 AM,69.8,50.0,49,30.12,10.0,NE,10.4,-,N/A,,Clear,40,2013-09-16 14:15:00
7:35 AM,69.8,50.0,49,30.12,10.0,NE,8.1,-,N/A,,Clear,50,2013-09-16 14:35:00
7:55 AM,71.6,51.8,50,30.12,10.0,NE,6.9,-,N/A,,Clear,40,2013-09-16 14:55:00
8:15 AM,73.4,51.8,47,30.13,10.0,Calm,Calm,-,N/A,,Clear,0,2013-09-16 15:15:00
8:35 AM,75.2,51.8,44,30.13,10.0,Calm,Calm,-,N/A,,Clear,0,2013-09-16 15:35:00
8:55 AM,77.0,51.8,41,30.13,10.0,Calm,Calm,-,N/A,,Clear,0,2013-09-16 15:55:00
9:15 AM,78.8,53.6,42,30.14,10.0,SSE,3.5,-,N/A,,Clear,150,2013-09-16 16:15:00
9:35 AM,80.6,53.6,39,30.14,10.0,SE,4.6,-,N/A,,Clear,140,2013-09-16 16:35:00
9:55 AM,80.6,53.6,39,30.14,10.0,SSW,5.8,-,N/A,,Clear,200,2013-09-16 16:55:00
10:15 AM,80.6,53.6,39,30.14,10.0,SSW,4.6,-,N/A,,Clear,210,2013-09-16 17:15:00
10:35 AM,80.6,53.6,39,30.14,10.0,Calm,Calm,-,N/A,,Clear,0,2013-09-16 17:35:00
10:55 AM,82.4,53.6,37,30.13,10.0,SW,4.6,-,N/A,,Clear,230,2013-09-16 17:55:00
11:15 AM,80.6,53.6,39,30.13,10.0,Calm,Calm,-,N/A,,Clear,0,2013-09-16 18:15:00
11:35 AM,84.2,53.6,35,30.12,10.0,South,5.8,-,N/A,,Clear,170,2013-09-16 18:35:00
11:55 AM,84.2,53.6,35,30.12,10.0,SW,6.9,-,N/A,,Clear,220,2013-09-16 18:55:00
12:15 PM,86.0,53.6,33,30.11,10.0,Calm,Calm,-,N/A,,Clear,0,2013-09-16 19:15:00
12:35 PM,86.0,53.6,33,30.10,10.0,SSW,6.9,-,N/A,,Clear,210,2013-09-16 19:35:00
12:55 PM,84.2,51.8,33,30.09,10.0,NW,3.5,-,N/A,,Clear,320,2013-09-16 19:55:00
1:15 PM,86.0,51.8,31,30.08,10.0,SSE,5.8,-,N/A,Thunderstorm,Clear,160,2013-09-16 20:15:00
1:35 PM,86.0,51.8,31,30.08,10.0,WSW,4.6,-,N/A,,Clear,250,2013-09-16 20:35:00
1:55 PM,86.0,51.8,31,30.08,10.0,West,4.6,-,N/A,Thunderstorm,Thunderstorm,270,2013-09-16 20:55:00
2:15 PM,87.8,51.8,29,30.07,10.0,Calm,Calm,-,N/A,Thunderstorm,Scattered Clouds,0,2013-09-16 21:15:00
2:35 PM,87.8,51.8,29,30.06,10.0,South,8.1,-,N/A,Thunderstorm,Clear,190,2013-09-16 21:35:00
2:55 PM,84.2,51.8,33,30.05,10.0,ENE,12.7,19.6,N/A,,Clear,70,2013-09-16 21:55:00
3:15 PM,82.4,51.8,35,30.04,10.0,East,9.2,-,N/A,,Scattered Clouds,90,2013-09-16 22:15:00
3:35 PM,86.0,51.8,31,30.03,10.0,East,4.6,-,N/A,Thunderstorm,Scattered Clouds,80,2013-09-16 22:35:00
3:55 PM,86.0,53.6,33,30.03,10.0,SE,5.8,-,N/A,,Clear,130,2013-09-16 22:55:00
4:15 PM,86.0,51.8,31,30.02,10.0,Calm,Calm,-,N/A,,Clear,0,2013-09-16 23:15:00
4:35 PM,84.2,50.0,30,30.02,10.0,Calm,Calm,-,N/A,,Clear,0,2013-09-16 23:35:00
4:55 PM,86.0,50.0,29,30.02,10.0,Calm,Calm,-,N/A,,Scattered Clouds,0,2013-09-16 23:55:00
5:15 PM,84.2,50.0,30,30.02,10.0,Calm,Calm,-,N/A,,Mostly Cloudy,0,2013-09-17 00:15:00
5:35 PM,86.0,51.8,31,30.02,10.0,SSE,5.8,-,N/A,,Overcast,160,2013-09-17 00:35:00
5:55 PM,78.8,60.8,54,30.02,10.0,ESE,9.2,-,N/A,Rain,Light Rain,120,2013-09-17 00:55:00
6:15 PM,78.8,55.4,44,30.02,10.0,East,6.9,-,N/A,,Mostly Cloudy,90,2013-09-17 01:15:00
6:35 PM,77.0,55.4,47,30.02,10.0,East,4.6,-,N/A,,Scattered Clouds,90,2013-09-17 01:35:00
6:55 PM,78.8,53.6,42,30.02,10.0,ENE,6.9,-,N/A,,Clear,60,2013-09-17 01:55:00
7:15 PM,78.8,53.6,42,30.03,10.0,ENE,8.1,-,N/A,,Clear,60,2013-09-17 02:15:00
7:35 PM,77.0,53.6,44,30.04,10.0,ENE,8.1,-,N/A,,Clear,60,2013-09-17 02:35:00
7:55 PM,77.0,53.6,44,30.05,10.0,ENE,8.1,-,N/A,,Clear,60,2013-09-17 02:55:00
8:15 PM,77.0,51.8,41,30.05,10.0,ENE,5.8,-,N/A,,Mostly Cloudy,70,2013-09-17 03:15:00
8:35 PM,77.0,51.8,41,30.06,10.0,ENE,5.8,-,N/A,,Scattered Clouds,60,2013-09-17 03:35:00
8:55 PM,77.0,53.6,44,30.06,10.0,ENE,6.9,-,N/A,,Clear,60,2013-09-17 03:55:00
9:15 PM,75.2,53.6,47,30.06,10.0,NE,6.9,-,N/A,,Clear,50,2013-09-17 04:15:00
9:35 PM,75.2,53.6,47,30.06,10.0,NE,8.1,-,N/A,,Scattered Clouds,50,2013-09-17 04:35:00
9:55 PM,75.2,53.6,47,30.06,10.0,NE,6.9,-,N/A,,Scattered Clouds,50,2013-09-17 04:55:00
10:15 PM,75.2,51.8,44,30.06,10.0,ENE,5.8,-,N/A,,Scattered Clouds,70,2013-09-17 05:15:00
10:35 PM,75.2,51.8,44,30.07,10.0,ENE,5.8,-,N/A,,Clear,60,2013-09-17 05:35:00
10:55 PM,73.4,51.8,47,30.07,10.0,ENE,4.6,-,N/A,,Clear,70,2013-09-17 05:55:00
11:15 PM,73.4,51.8,47,30.07,10.0,ESE,3.5,-,N/A,,Clear,120,2013-09-17 06:15:00
11:35 PM,73.4,51.8,47,30.08,10.0,SSE,5.8,-,N/A,,Clear,160,2013-09-17 06:35:00
11:55 PM,73.4,53.6,50,30.08,10.0,East,5.8,-,N/A,,Clear,100,2013-09-17 06:55:00